Location: Decatur(IL)
(39.8400°N, 88.9550°W)
Time: 16:15:10
(UTC-05:00)

Cosmos 1953 - Visible Passes

Search period start: 24 May 2015 00:00
Search period end: 03 June 2015 00:00
Orbit: 546 x 564 km, 82.5° (Epoch: 23 May)

Date Brightness Start Highest point End Pass type
(mag) Time Alt. Az. Time Alt. Az. Time Alt. Az.
24 May 4.1 22:15:07 10° NNE 22:18:00 19° ENE 22:18:05 19° ENE visible
24 May 4.0 23:51:02 10° NNW 23:53:54 28° WNW 23:53:54 28° WNW visible
25 May 3.9 22:12:09 10° NNE 22:15:18 21° ENE 22:15:30 21° ENE visible
25 May 4.1 23:48:23 10° NNW 23:51:20 25° WNW 23:51:20 25° WNW visible
26 May 3.7 22:09:14 10° NNE 22:12:34 24° ENE 22:12:56 24° E visible
26 May 4.3 23:45:45 10° NW 23:48:46 23° W 23:48:46 23° W visible
27 May 3.5 22:06:19 10° NNE 22:09:50 27° ENE 22:10:23 26° E visible
27 May 4.4 23:43:10 10° NW 23:46:13 20° W 23:46:13 20° W visible
28 May 3.3 22:03:26 10° NNE 22:07:06 31° ENE 22:07:51 29° E visible
28 May 4.5 23:40:36 10° NW 23:43:27 18° W 23:43:41 18° W visible
29 May 3.2 22:00:34 10° N 22:04:21 35° ENE 22:05:20 31° ESE visible
29 May 4.7 23:38:05 10° NW 23:40:38 16° W 23:41:10 15° W visible
30 May 3.0 21:57:43 10° N 22:01:36 40° ENE 22:02:49 32° ESE visible
30 May 4.8 23:35:38 10° NW 23:37:49 14° W 23:38:39 13° W visible
31 May 2.8 21:54:53 10° N 21:58:51 46° E 22:00:19 32° SE visible
31 May 5.0 23:33:20 10° WNW 23:34:59 12° W 23:36:10 11° WSW visible
01 Jun 2.6 21:52:03 10° N 21:56:05 54° E 21:57:51 30° SE visible
01 Jun 5.2 23:31:23 10° WNW 23:32:11 10° W 23:32:42 10° W visible
02 Jun 2.4 21:49:14 10° N 21:53:19 62° E 21:55:24 27° SSE visible
